TimeEST,TemperatureF,Dew PointF,Humidity,Sea Level PressureIn,VisibilityMPH,Wind Direction,Wind SpeedMPH,Gust SpeedMPH,PrecipitationIn,Events,Conditions,WindDirDegrees,DateUTC
12:51 AM,17.1,1.9,52,30.49,10.0,WNW,6.9,-,N/A,,Clear,290,2013-01-25 05:51:00
1:51 AM,18.0,1.0,48,30.50,10.0,WNW,8.1,-,N/A,,Clear,300,2013-01-25 06:51:00
2:51 AM,16.0,1.9,54,30.49,10.0,WNW,9.2,-,N/A,,Clear,300,2013-01-25 07:51:00
3:51 AM,16.0,-0.0,49,30.50,10.0,West,5.8,-,N/A,,Clear,280,2013-01-25 08:51:00
4:51 AM,16.0,1.9,54,30.48,10.0,NW,6.9,-,N/A,,Clear,310,2013-01-25 09:51:00
5:51 AM,17.1,1.0,50,30.46,10.0,North,3.5,-,N/A,,Clear,360,2013-01-25 10:51:00
6:51 AM,17.1,1.9,52,30.47,10.0,NW,3.5,-,N/A,,Clear,320,2013-01-25 11:51:00
7:51 AM,17.1,1.9,52,30.47,10.0,Calm,Calm,-,N/A,,Clear,0,2013-01-25 12:51:00
8:51 AM,18.0,1.9,50,30.47,10.0,Calm,Calm,-,N/A,,Clear,0,2013-01-25 13:51:00
9:51 AM,19.0,1.0,46,30.45,10.0,Calm,Calm,-,N/A,,Clear,0,2013-01-25 14:51:00
10:51 AM,19.9,1.9,46,30.41,10.0,Calm,Calm,-,N/A,,Partly Cloudy,0,2013-01-25 15:51:00
11:51 AM,21.0,1.9,44,30.38,10.0,WSW,4.6,-,N/A,,Mostly Cloudy,250,2013-01-25 16:51:00
12:51 PM,21.9,1.9,42,30.34,10.0,SW,6.9,-,N/A,,Mostly Cloudy,230,2013-01-25 17:51:00
1:51 PM,21.9,1.9,42,30.28,10.0,South,4.6,-,N/A,,Overcast,190,2013-01-25 18:51:00
2:51 PM,21.9,7.0,53,30.25,7.0,Variable,4.6,-,0.00,Snow,Light Snow,0,2013-01-25 19:51:00
3:25 PM,21.2,8.6,58,30.24,2.0,Calm,Calm,-,0.00,Snow,Light Snow,0,2013-01-25 20:25:00
3:32 PM,21.2,8.6,58,30.23,0.8,Calm,Calm,-,0.00,Snow,Light Snow,0,2013-01-25 20:32:00
3:47 PM,19.4,12.2,74,30.23,1.8,Calm,Calm,-,0.00,Snow,Light Snow,0,2013-01-25 20:47:00
3:51 PM,19.9,12.0,71,30.24,1.8,Calm,Calm,-,0.00,Snow,Light Snow,0,2013-01-25 20:51:00
4:51 PM,19.9,14.0,78,30.19,1.0,South,3.5,-,0.01,Snow,Light Snow,180,2013-01-25 21:51:00
5:51 PM,19.0,15.1,85,30.18,1.5,SSW,4.6,-,0.02,Snow,Light Snow,200,2013-01-25 22:51:00
6:12 PM,19.4,15.8,86,30.16,3.0,South,4.6,-,0.01,Snow,Light Snow,190,2013-01-25 23:12:00
6:34 PM,19.4,15.8,86,30.16,7.0,Calm,Calm,-,0.01,,Scattered Clouds,0,2013-01-25 23:34:00
6:51 PM,19.0,15.1,85,30.16,10.0,Calm,Calm,-,0.01,,Scattered Clouds,0,2013-01-25 23:51:00
7:51 PM,19.0,15.1,85,30.14,6.0,Calm,Calm,-,0.00,,Overcast,0,2013-01-26 00:51:00
8:51 PM,18.0,15.1,88,30.12,7.0,Calm,Calm,-,0.00,,Overcast,0,2013-01-26 01:51:00
9:22 PM,19.4,15.8,86,30.10,7.0,Calm,Calm,-,N/A,,Mostly Cloudy,0,2013-01-26 02:22:00
9:51 PM,19.0,16.0,88,30.10,6.0,Calm,Calm,-,N/A,,Overcast,0,2013-01-26 02:51:00
10:44 PM,17.6,15.8,93,30.10,4.0,NNW,3.5,-,N/A,,Partly Cloudy,330,2013-01-26 03:44:00
10:51 PM,17.1,15.1,92,30.10,4.0,NNW,3.5,-,N/A,,Partly Cloudy,330,2013-01-26 03:51:00
11:31 PM,15.8,14.0,93,30.10,4.0,Calm,Calm,-,N/A,,Mostly Cloudy,0,2013-01-26 04:31:00
11:43 PM,17.6,14.0,86,30.10,4.0,NW,3.5,-,N/A,,Scattered Clouds,320,2013-01-26 04:43:00
11:51 PM,15.1,12.9,91,30.11,4.0,NW,4.6,-,N/A,,Scattered Clouds,320,2013-01-26 04:51:00